Retour au catalogue

STARLINK-32208

ActifCommunicationsVLEO
NORAD 60598·PAYLOAD·🇺🇸 United States

Lancé Aug 20, 2024 depuis Cape Canaveral Space Force Station

Loading…

Prochains Passages (prochaines 24 heures)

TLE

FraisSource: CelesTrak SupGP

Époque: Sep 14, 2026, 22:39 UTC

1 60598C 24150R   26257.94423611 -.00068618  00000+0 -20272-2 0  2574
2 60598  53.1580 147.4268 0001294  94.6475 303.5833 15.34426535    19

Suivez STARLINK-32208 en temps réel avec AllMySat

Download on the App Store